#timestamp,LO_Frequency,Hit,StdDev 
1667419215.7,286047008.4,N
1667419235.6,286047009.7,N
1667419255.4,286047011.7,N
1667419275.2,286047011.3,N
1667419295.1,286047015.2,Y
1667419296.0,286047015.2,P
1667419315.8,286047008.9,N
1667419335.6,286047006.1,N
1667419355.5,286047011.3,Y
1667419375.3,286047002.5,P
1667419395.2,286047000.1,N
1667419415.9,286047002.6,N
1667419435.7,286046995.6,N
1667419455.6,286046992.0,N
1667419475.4,286046994.2,N
1667419495.2,286046995.9,N
1667419515.1,286046990.3,N
1667419516.0,286046990.3,N
1667419535.8,286046992.9,N
1667419555.7,286046994.0,N
1667419575.5,286046995.7,N
1667419595.3,286046998.7,N
1667419615.2,286046999.7,N
1667419635.9,286047002.4,N
1667419655.7,286047004.1,N
1667419675.6,286047001.9,N
1667419695.4,286047005.8,N
1667419715.2,286047005.8,N
1667419735.1,286047007.9,N
1667419736.0,286047007.9,N
1667419755.8,286047010.3,N
1667419775.7,286047007.7,N
1667419795.5,286047011.7,N
1667419815.3,286047013.1,N
1667419835.2,286047018.1,N
1667419855.0,286047020.7,N
1667419855.9,286047020.7,N
1667419875.8,286047024.9,N
1667419895.6,286047025.1,N
1667419915.4,286047024.3,N
1667419935.3,286047024.6,N
1667419955.1,286047026.2,N
1667419956.0,286047026.2,N
1667419975.8,286047025.3,N
1667419995.7,286047024.3,N
1667420015.5,286047023.8,N
1667420035.3,286047030.0,N
1667420055.2,286047032.3,N
1667420075.0,286047036.0,Y
1667420075.9,286047036.0,P
1667420095.8,286047024.7,N
1667420115.6,286047024.5,N
1667420135.4,286047026.7,Y
1667420155.3,286047001.6,P
1667420175.1,286046998.2,N
1667420195.9,286046995.2,N
1667420215.7,286046992.3,N
1667420235.6,286046990.8,N
1667420255.4,286046989.3,N
1667420275.2,286046989.8,N
1667420295.1,286046986.5,N
1667420296.0,286046986.5,N
1667420315.8,286046986.1,N
1667420335.7,286046983.8,N
1667420355.5,286046982.1,N
1667420375.3,286046979.5,N
1667420395.2,286046984.4,N
1667420415.9,286046982.1,N
1667420435.7,286046983.6,N
1667420455.6,286046982.5,N
1667420475.4,286046983.9,N
1667420495.2,286046986.1,N
1667420515.1,286046983.4,N
1667420516.0,286046983.4,N
1667420535.8,286046982.5,N
1667420555.7,286046983.0,N
1667420575.5,286046981.8,N
1667420595.3,286046984.1,N
1667420615.2,286046991.1,N
1667420635.0,286046988.2,N
1667420635.9,286046988.2,N
1667420655.7,286046985.7,N
1667420675.6,286046992.2,N
1667420695.4,286046992.7,N
1667420715.3,286046996.1,N
1667420735.1,286046994.6,N
1667420736.0,286046994.6,N
1667420755.8,286046994.6,N
1667420775.7,286046996.4,N
1667420795.5,286046998.6,N
1667420815.3,286047003.7,N
1667420835.2,286047009.6,N
1667420855.0,286047007.8,N
1667420855.9,286047007.8,N
1667420875.8,286047008.5,N
1667420895.6,286047008.6,N
1667420915.4,286047009.0,N
1667420935.3,286047010.2,N
1667420955.1,286047015.1,N
1667420975.8,286047014.3,N
1667420995.7,286047016.5,N
1667421015.5,286047012.8,N
1667421035.4,286047013.2,N
1667421055.2,286047011.6,N
1667421075.0,286047012.5,N
1667421076.0,286047012.5,N
1667421095.8,286047013.4,N
1667421115.6,286047015.1,N
1667421135.5,286047017.1,N
1667421155.3,286047016.6,N
1667421175.1,286047015.6,N
1667421195.9,286047013.3,N
1667421215.7,286047013.7,N
1667421235.6,286047009.8,N
1667421255.4,286047011.6,N
1667421275.2,286047012.3,N
1667421295.1,286047010.0,N
1667421296.0,286047010.0,N
1667421315.8,286047010.2,N
1667421335.6,286047008.3,N
1667421355.5,286047009.9,Y
1667421375.3,286047002.8,P
1667421395.2,286047000.8,N
1667421415.9,286047001.5,N
1667421435.7,286047005.9,N
1667421455.6,286047001.4,N
1667421475.4,286047005.0,N
1667421495.2,286047003.2,N
1667421515.1,286047005.7,N
1667421516.0,286047005.7,N
1667421535.8,286047005.8,N
1667421555.7,286047009.0,Y
1667421575.5,286047004.7,P
1667421595.3,286047009.0,P
1667421615.2,286047005.8,N
1667421635.0,286047010.8,Y
1667421635.9,286047010.8,P
1667421655.7,286047005.9,N
1667421675.6,286047008.6,P
1667421695.4,286047011.2,Y
1667421715.3,286047009.6,P
1667421735.1,286047011.0,P
1667421755.8,286047014.2,P
1667421775.7,286047014.6,Y
1667421795.5,286047004.0,P
1667421815.4,286047004.7,N
1667421835.2,286047004.5,N
1667421855.0,286047003.7,N
1667421855.9,286047003.7,N
1667421875.8,286047001.0,N
1667421895.6,286047000.6,N
1667421915.4,286046999.0,N
1667421935.3,286046993.6,N
1667421955.1,286046994.0,N
1667421975.9,286046994.6,N
1667421995.7,286046992.7,N
1667422015.5,286046990.6,N
1667422035.4,286046993.2,N
1667422055.2,286046993.5,N
1667422075.0,286046995.5,N
1667422075.9,286046995.5,N
1667422095.8,286046998.4,N
1667422115.6,286047001.4,N
1667422135.5,286047001.5,N
1667422155.3,286047006.4,N
1667422175.1,286047006.9,N
1667422195.9,286047008.5,N
1667422215.7,286047007.6,N
1667422235.5,286047005.2,N
1667422255.4,286047004.8,N
1667422275.2,286047005.0,N
1667422295.1,286047006.2,N
1667422296.0,286047006.2,N
1667422315.8,286047010.1,N
1667422335.6,286047011.0,N
1667422355.5,286047015.9,N
1667422375.3,286047018.9,N
1667422395.2,286047026.8,Y
1667422415.0,286047029.6,P
1667422415.9,286047029.6,N
1667422435.8,286047031.7,N
1667422455.6,286047035.4,N
1667422475.4,286047033.7,N
1667422495.3,286047034.0,Y
1667422515.1,286047004.5,P
1667422535.9,286047003.8,N
1667422555.7,286047004.2,N
1667422575.5,286047001.2,N
1667422595.4,286046997.4,N
1667422615.2,286046997.2,N
1667422635.0,286046996.2,N
1667422636.0,286046996.2,N
1667422655.8,286046991.7,N
1667422675.7,286046993.9,N
1667422695.5,286046993.8,N
1667422715.3,286046997.6,N
1667422735.2,286046994.9,N
1667422755.0,286047000.8,N
1667422755.9,286047000.8,N
1667422775.7,286047000.0,N
1667422795.6,286047000.0,N
